time_stamp(utc),avg(mph),gust(mph),direction(deg),12m_air_temp(f),sonic_u(cm/s),sonic_v(cm/s),sonic_w(cm/s),pressure,2m_air_temp(f),pyranometer(W/m^2)
"2020-11-27 00:02:39+00",5.4,5.4,,59.2,-235,32,-2,1016.69,53.1,0
"2020-11-27 00:07:39+00",5.2,5.2,,58.8,-226,12,-9,1016.85,53,0
"2020-11-27 00:12:39+00",4.8,4.8,,57.7,-207,6,-11,1016.89,52.8,0
"2020-11-27 00:17:39+00",4.0,4.0,,56,-167,35,-6,1016.96,52.6,0
"2020-11-27 00:22:39+00",3.9,3.9,,55.5,-159,58,-5,1017.05,52.5,0
"2020-11-27 00:27:39+00",4.1,4.1,,55.3,-172,46,-4,1016.98,52.4,0
"2020-11-27 00:32:39+00",4.3,4.3,,55.8,-180,45,-1,1017.13,52.3,0
"2020-11-27 00:37:39+00",3.0,3.0,,56.2,-121,36,-2,1017.15,52.2,0
"2020-11-27 00:42:39+00",3.6,3.6,,56.6,-134,71,0,1017.09,52.1,0
"2020-11-27 00:47:39+00",3.0,3.0,,57.6,-99,68,-1,1017.17,52.2,0
"2020-11-27 00:52:39+00",2.9,2.9,,57.4,-70,88,2,1017.27,52.3,0
"2020-11-27 00:57:39+00",1.8,2.8,,57.1,-50,46,5,1017.26,52.3,0
"2020-11-27 01:02:39+00",1.1,1.1,,56.5,-38,16,-1,1017.32,52.2,0
"2020-11-27 01:07:39+00",0.6,0.6,,56.1,2,22,-3,1017.34,52,0
"2020-11-27 01:12:39+00",1.3,1.3,,56.2,52,28,-1,1017.41,51.7,0
"2020-11-27 01:17:39+00",1.9,2.9,,56.3,50,50,6,1017.47,51.9,0
"2020-11-27 01:22:39+00",1.5,1.5,,56.2,23,44,1,1017.47,52,0
"2020-11-27 01:27:39+00",1.4,2.4,,56.2,23,46,-1,1017.52,52.2,0
"2020-11-27 01:32:39+00",1.5,1.5,,56.2,22,50,-1,1017.46,52.3,0
"2020-11-27 01:37:39+00",1.4,1.4,,56.2,24,41,-1,1017.43,52.2,0
"2020-11-27 01:42:39+00",2.1,2.1,,56.2,18,74,1,1017.47,52.3,0
"2020-11-27 01:47:39+00",2.2,2.2,,56.2,0,81,0,1017.41,52.3,0
"2020-11-27 01:52:39+00",0.7,1.7,,56.2,14,19,0,1017.47,52,0
"2020-11-27 01:57:39+00",1.2,1.2,,56.1,2,39,1,1017.56,51.9,0
"2020-11-27 02:02:39+00",1.7,1.7,,55.9,-32,55,-1,1017.51,51.7,0
"2020-11-27 02:07:39+00",2.0,2.0,,55.9,-78,10,-4,1017.43,51.2,0
"2020-11-27 02:12:39+00",2.3,2.3,,56,-82,37,-3,1017.47,50.9,0
"2020-11-27 02:17:39+00",1.5,1.5,,56.2,-53,-18,0,1017.51,50.9,0
"2020-11-27 02:22:39+00",2.9,3.9,,55.7,-72,-111,3,1017.53,51.6,0
"2020-11-27 02:27:39+00",3.3,4.3,,55.5,-86,-119,5,1017.48,51.2,0
"2020-11-27 02:32:39+00",4.1,5.1,,55.3,-125,-114,-5,1017.48,50.8,0
"2020-11-27 02:37:39+00",2.0,2.0,,55.4,-70,-42,-3,1017.52,50.5,0
"2020-11-27 02:42:39+00",2.4,2.4,,55.8,-87,-37,-3,1017.45,50.4,0
"2020-11-27 02:47:39+00",3.5,3.5,,55.8,-109,-95,-3,1017.45,50.4,0
"2020-11-27 02:52:39+00",4.2,5.2,,55.5,-149,-108,6,1017.51,50.3,0
"2020-11-27 02:57:39+00",3.6,3.6,,55.6,-133,-50,-5,1017.4,50.1,0
"2020-11-27 03:02:39+00",4.6,5.6,,55.3,-197,-10,-4,1017.46,50,0
"2020-11-27 03:07:39+00",6.9,7.9,,54,-303,62,11,1017.44,49.8,0
"2020-11-27 03:12:39+00",7.2,7.2,,53.2,-294,135,7,1017.43,49.7,0
"2020-11-27 03:17:39+00",6.8,6.8,,54.2,-277,132,12,1017.41,49.8,0
"2020-11-27 03:22:39+00",5.7,5.7,,54.9,-228,114,9,1017.46,50.1,0
"2020-11-27 03:27:39+00",6.5,7.5,,54.7,-256,148,13,1017.46,50.4,0
"2020-11-27 03:32:39+00",6.8,7.8,,54.7,-270,153,13,1017.61,50.5,0
"2020-11-27 03:37:39+00",7.2,8.2,,55,-264,177,8,1017.55,50.7,0
"2020-11-27 03:42:39+00",7.7,8.7,,54.8,-295,179,19,1017.58,50.8,0
"2020-11-27 03:47:39+00",7.6,7.6,,54.7,-292,184,16,1017.65,50.8,0
"2020-11-27 03:52:39+00",8.4,8.4,,53.3,-300,221,1,1017.77,50.8,0
"2020-11-27 03:57:39+00",7.8,7.8,,53.2,-258,231,16,1017.69,50.6,0
"2020-11-27 04:02:39+00",7.0,7.0,,53.3,-232,205,14,1017.76,50.4,0
"2020-11-27 04:07:39+00",7.3,8.3,,53.1,-263,193,10,1017.82,50.3,0
"2020-11-27 04:12:39+00",7.4,8.4,,54,-251,208,14,1017.81,50.1,0
"2020-11-27 04:17:39+00",7.4,7.4,,55.5,-240,216,15,1017.74,50,0
"2020-11-27 04:22:39+00",7.1,7.1,,55.9,-239,207,16,1017.73,49.9,0
"2020-11-27 04:27:39+00",6.9,6.9,,55.4,-227,206,15,1017.87,49.9,0
"2020-11-27 04:32:39+00",6.9,6.9,,54.4,-210,216,12,1017.84,49.9,0
"2020-11-27 04:37:39+00",6.3,6.3,,53.9,-173,206,3,1017.81,49.8,0
"2020-11-27 04:42:39+00",5.6,6.6,,52.6,-164,171,0,1017.83,49.7,0
"2020-11-27 04:47:39+00",5.5,5.5,,52.6,-134,192,7,1017.89,49.5,0
"2020-11-27 04:52:39+00",4.2,5.2,,52,-118,129,4,1017.92,49.3,0
"2020-11-27 04:57:39+00",5.9,5.9,,51.9,-192,164,12,1017.93,49.2,0
"2020-11-27 05:02:39+00",5.8,5.8,,51.5,-170,183,8,1018,49.1,0
"2020-11-27 05:07:39+00",5.7,5.7,,51.4,-210,137,5,1018.08,48.9,0
"2020-11-27 05:12:39+00",5.7,5.7,,51.6,-206,139,2,1018.05,48.9,0
"2020-11-27 05:17:39+00",6.0,7.0,,51.9,-224,142,10,1018.07,48.9,0
"2020-11-27 05:22:39+00",5.8,5.8,,51.8,-215,140,3,1018.03,49.1,0
"2020-11-27 05:27:39+00",5.7,6.7,,51.8,-197,147,5,1017.92,49.4,0
"2020-11-27 05:32:39+00",5.0,6.0,,51.6,-184,108,3,1017.88,49.7,0
"2020-11-27 05:37:39+00",4.7,4.7,,51.7,-155,130,-2,1017.87,50,0
"2020-11-27 05:42:39+00",5.1,6.1,,51.7,-141,169,5,1017.79,50.2,0
"2020-11-27 05:47:39+00",5.5,6.5,,51.7,-161,179,8,1017.8,50.3,0
"2020-11-27 05:52:39+00",4.7,4.7,,51.6,-161,122,8,1017.78,50.4,0
"2020-11-27 05:57:39+00",4.2,5.2,,51.5,-148,98,4,1017.84,50.4,0
"2020-11-27 06:02:39+00",4.7,4.7,,51.4,-144,146,9,1017.84,50.4,0
"2020-11-27 06:07:39+00",5.0,6.0,,51.4,-164,149,6,1017.81,50.4,0
"2020-11-27 06:12:39+00",5.3,6.3,,51.3,-167,152,8,1017.79,50.4,0
"2020-11-27 06:17:39+00",5.6,6.6,,51.3,-156,184,5,1017.73,50.3,0
"2020-11-27 06:22:39+00",5.8,6.8,,51.3,-131,216,9,1017.66,50.3,0
"2020-11-27 06:27:39+00",5.5,6.5,,51.4,-146,185,9,1017.69,50.2,0
"2020-11-27 06:32:39+00",5.2,5.2,,51.3,-152,171,7,1017.81,50.2,0
"2020-11-27 06:37:39+00",6.8,7.8,,51.4,-208,208,12,1017.73,50.3,0
"2020-11-27 06:42:39+00",6.8,7.8,,51.6,-203,222,7,1017.76,50.3,0
"2020-11-27 06:47:39+00",6.3,7.3,,52,-131,242,5,1017.8,50.3,0
"2020-11-27 06:52:39+00",5.7,5.7,,52.2,-145,198,11,1017.75,50.3,0
"2020-11-27 06:57:39+00",5.9,6.9,,52.4,-175,186,11,1017.75,50.3,0
"2020-11-27 07:02:39+00",3.0,3.0,,52.3,-96,74,0,1017.75,50.3,0
"2020-11-27 07:07:39+00",3.6,3.6,,52.2,-135,67,2,1017.83,50.3,0
"2020-11-27 07:12:39+00",2.9,2.9,,52.1,-113,-23,0,1017.78,50.4,0
"2020-11-27 07:17:39+00",2.7,3.7,,52,-97,-63,-1,1017.78,50.3,0
"2020-11-27 07:22:39+00",4.2,5.2,,52,-174,-26,-7,1017.8,50.4,0
"2020-11-27 07:27:39+00",5.0,5.0,,52.2,-221,10,2,1017.87,50.4,0
"2020-11-27 07:32:39+00",4.7,4.7,,52.4,-168,114,3,1017.78,50.3,0
"2020-11-27 07:37:39+00",5.6,6.6,,52.3,-230,84,9,1017.83,50.3,0
"2020-11-27 07:42:39+00",4.4,4.4,,52.1,-187,7,-2,1017.88,50.2,0
"2020-11-27 07:47:39+00",4.1,5.1,,52,-179,20,-3,1017.88,50,0
"2020-11-27 07:52:39+00",4.9,4.9,,52,-186,108,3,1017.76,50,0
"2020-11-27 07:57:39+00",4.3,4.3,,52.2,-179,30,0,1017.9,49.8,0
"2020-11-27 08:02:39+00",5.1,5.1,,51.9,-221,48,8,1017.83,49.7,0
"2020-11-27 08:07:39+00",4.6,4.6,,52,-177,94,7,1017.76,49.6,0
"2020-11-27 08:12:39+00",3.9,3.9,,52,-162,37,2,1017.73,49.5,0
"2020-11-27 08:17:39+00",4.6,5.6,,51.9,-195,37,7,1017.75,49.5,0
"2020-11-27 08:22:39+00",4.7,4.7,,52.2,-202,31,2,1017.73,49.5,0
"2020-11-27 08:27:39+00",5.9,6.9,,52.2,-260,27,14,1017.84,49.7,0
"2020-11-27 08:32:39+00",6.6,6.6,,52.4,-278,98,13,1017.81,49.7,0
"2020-11-27 08:37:39+00",6.9,6.9,,52.5,-263,160,17,1017.84,49.9,0
"2020-11-27 08:42:39+00",7.5,7.5,,52.2,-306,138,15,1017.83,50,0
"2020-11-27 08:47:39+00",6.2,6.2,,52,-233,143,10,1017.76,50,0
"2020-11-27 08:52:39+00",6.4,7.4,,52.1,-239,157,12,1017.9,50.1,0
"2020-11-27 08:57:39+00",6.8,7.8,,52.2,-240,183,14,1017.84,50.3,0
"2020-11-27 09:02:39+00",6.3,6.3,,52.2,-258,112,11,1017.9,50.3,0
"2020-11-27 09:07:39+00",6.2,6.2,,52.2,-221,165,12,1017.93,50.4,0
"2020-11-27 09:12:39+00",7.0,8.0,,52.2,-250,178,11,1017.87,50.4,0
"2020-11-27 09:17:39+00",6.2,6.2,,52.3,-189,191,10,1017.86,50.5,0
"2020-11-27 09:22:39+00",6.9,7.9,,52.3,-227,205,13,1017.8,50.6,0
"2020-11-27 09:27:39+00",7.8,8.8,,52.2,-227,251,14,1017.84,50.6,0
"2020-11-27 09:32:39+00",6.8,7.8,,52.1,-224,214,12,1017.9,50.6,0
"2020-11-27 09:37:39+00",7.7,8.7,,52,-237,246,12,1017.8,50.5,0
"2020-11-27 09:42:39+00",8.1,9.1,,52,-283,224,18,1018.02,50.6,0
"2020-11-27 09:47:39+00",8.1,9.1,,52,-271,237,20,1018.06,50.6,0
"2020-11-27 09:52:39+00",9.1,10.1,,52,-291,281,17,1017.96,50.7,0
"2020-11-27 09:57:39+00",7.8,8.8,,51.9,-237,257,9,1017.94,50.7,0
"2020-11-27 10:02:39+00",7.6,8.6,,51.9,-231,250,10,1017.96,50.7,0
"2020-11-27 10:07:39+00",7.0,8.0,,51.9,-187,247,10,1017.81,50.7,0
"2020-11-27 10:12:39+00",7.2,8.2,,51.9,-215,239,14,1017.92,50.7,0
"2020-11-27 10:17:39+00",7.9,8.9,,51.8,-207,275,9,1017.94,50.7,0
"2020-11-27 10:22:39+00",7.4,8.4,,51.8,-198,265,9,1017.82,50.7,0
"2020-11-27 10:27:39+00",7.0,7.0,,51.8,-164,261,7,1017.91,50.6,0
"2020-11-27 10:32:39+00",7.9,8.9,,51.7,-199,283,12,1017.96,50.6,0
"2020-11-27 10:37:39+00",7.7,8.7,,51.7,-156,302,9,1017.86,50.6,0
"2020-11-27 10:42:39+00",8.1,9.1,,51.7,-158,317,10,1017.92,50.6,0
"2020-11-27 10:47:39+00",7.5,8.5,,51.9,-143,294,6,1017.95,50.6,0
"2020-11-27 10:52:39+00",5.1,6.1,,51.9,-48,211,2,1018,50.6,0
"2020-11-27 10:57:39+00",4.1,5.1,,52.1,-53,162,-1,1018.04,50.6,0
"2020-11-27 11:02:39+00",1.9,2.9,,52.2,-51,55,2,1018.12,50.6,0
"2020-11-27 11:07:39+00",3.6,4.6,,52.4,-75,130,0,1018.29,50.6,0
"2020-11-27 11:12:39+00",4.8,5.8,,52.7,-80,189,1,1018.27,50.7,0
"2020-11-27 11:17:39+00",4.8,4.8,,52.9,-72,191,4,1018.3,50.7,0
"2020-11-27 11:22:39+00",4.1,4.1,,53.1,-45,166,0,1018.42,50.8,0
"2020-11-27 11:27:39+00",3.6,3.6,,53.1,-45,144,-1,1018.45,50.8,0
"2020-11-27 11:32:39+00",3.0,3.0,,53.1,-30,120,-2,1018.49,50.7,0
"2020-11-27 11:37:39+00",2.3,3.3,,53.2,-22,83,0,1018.55,50.7,0
"2020-11-27 11:42:39+00",2.5,3.5,,53.2,0,97,-3,1018.59,50.7,0
"2020-11-27 11:47:39+00",2.7,3.7,,53.1,21,101,-3,1018.56,50.9,0
"2020-11-27 11:52:39+00",2.5,2.5,,53.1,-7,96,0,1018.68,50.9,0
"2020-11-27 11:57:39+00",3.8,3.8,,53.1,-57,145,1,1018.67,50.9,0
"2020-11-27 12:02:39+00",5.2,5.2,,53.1,-58,213,-1,1018.7,51,0
"2020-11-27 12:07:39+00",4.0,4.0,,53.1,-54,156,1,1018.68,51,0
"2020-11-27 12:12:39+00",2.9,2.9,,53.1,-47,105,2,1018.75,51,0
"2020-11-27 12:17:39+00",3.7,4.7,,53.2,-14,150,0,1018.58,51,0
"2020-11-27 12:22:39+00",3.8,4.8,,53.3,16,155,1,1018.47,51.1,0
"2020-11-27 12:27:39+00",3.0,3.0,,53.2,87,81,-2,1018.57,51.2,0
"2020-11-27 12:32:39+00",3.4,3.4,,53,102,88,4,1018.47,51.3,0
"2020-11-27 12:37:39+00",3.9,3.9,,53,21,156,-1,1018.57,51.3,0
"2020-11-27 12:42:39+00",3.9,3.9,,53,-81,141,9,1018.74,51.4,0
"2020-11-27 12:47:39+00",4.8,5.8,,53,-167,129,12,1018.85,51.5,0
"2020-11-27 12:52:39+00",3.9,3.9,,53,-123,116,6,1018.99,51.6,0
"2020-11-27 12:57:39+00",3.8,3.8,,53,-146,58,6,1019.14,51.7,0
"2020-11-27 13:02:39+00",3.1,3.1,,53.1,-126,-12,6,1019.1,51.8,0
"2020-11-27 13:07:39+00",3.1,3.1,,53,-119,-25,4,1019.12,52,0
"2020-11-27 13:12:39+00",2.9,2.9,,52.7,-112,45,1,1018.99,52.1,0
"2020-11-27 13:17:39+00",3.4,3.4,,52.5,-95,102,8,1018.99,52.2,0
"2020-11-27 13:22:39+00",3.7,4.7,,52.5,-140,82,3,1018.98,52.3,0
"2020-11-27 13:27:39+00",5.0,6.0,,52.6,-208,77,10,1018.99,52.4,0
"2020-11-27 13:32:39+00",3.9,4.9,,52.5,-155,80,3,1019.04,52.4,0
"2020-11-27 13:37:39+00",4.4,5.4,,52.6,-165,85,2,1019.05,52.5,0
"2020-11-27 13:42:39+00",3.3,4.3,,52.6,-134,59,5,1018.95,52.6,0
"2020-11-27 13:47:39+00",4.2,5.2,,52.6,-138,97,4,1018.83,52.7,0
"2020-11-27 13:52:39+00",4.0,5.0,,52.7,-116,110,6,1018.77,52.7,0
"2020-11-27 13:57:39+00",4.4,4.4,,52.7,-129,136,4,1018.78,52.8,0
"2020-11-27 14:02:39+00",4.1,5.1,,52.7,-126,114,10,1018.84,52.9,0
"2020-11-27 14:07:39+00",4.4,5.4,,52.8,-144,124,10,1018.81,53.1,0
"2020-11-27 14:12:39+00",4.1,5.1,,52.9,-121,120,14,1018.77,53.2,0
"2020-11-27 14:17:39+00",3.8,4.8,,53.3,-53,142,12,1018.73,53.5,0
"2020-11-27 14:22:39+00",4.5,5.5,,53.9,-76,175,8,1018.65,53.7,0
"2020-11-27 14:27:39+00",5.9,6.9,,54.5,-3,242,5,1018.6,54.1,0
"2020-11-27 14:32:39+00",7.2,8.2,,54.7,-50,306,4,1018.43,54.7,0
"2020-11-27 14:37:39+00",7.3,8.3,,55,15,315,3,1018.3,55.2,0
"2020-11-27 14:42:39+00",6.9,7.9,,55,-53,298,14,1018.44,55.4,0
"2020-11-27 14:47:39+00",6.7,7.7,,55,-69,291,1,1018.42,55.6,0
"2020-11-27 14:52:39+00",5.9,7.9,,55.1,-50,247,15,1018.44,55.8,0
"2020-11-27 14:57:39+00",6.1,7.1,,55.2,-38,269,15,1018.28,55.9,0
"2020-11-27 15:02:39+00",7.3,8.3,,55.5,-73,313,1,1018.2,56.2,0
"2020-11-27 15:07:39+00",7.1,9.1,,55.6,-48,296,-1,1018.12,56.5,0
"2020-11-27 15:12:39+00",6.1,7.1,,55.9,-38,270,9,1018.08,56.7,0
"2020-11-27 15:17:39+00",6.7,7.7,,56,-30,283,24,1018.05,57,0
"2020-11-27 15:22:39+00",5.4,6.4,,56.2,-61,237,8,1018.09,57.1,0
"2020-11-27 15:27:39+00",5.9,6.9,,56.3,-62,249,2,1018.19,57.2,0
"2020-11-27 15:32:39+00",5.5,6.5,,56.4,-66,229,-13,1018.16,57.3,0
"2020-11-27 15:37:39+00",5.4,6.4,,56.5,-131,190,5,1018.1,57.2,0
"2020-11-27 15:42:39+00",6.1,7.1,,56.6,-101,250,5,1018.04,57.2,0
"2020-11-27 15:47:39+00",5.4,6.4,,56.8,-124,202,7,1018.05,57.2,0
"2020-11-27 15:52:39+00",4.3,5.3,,56.9,-57,176,-5,1017.9,57.3,0
"2020-11-27 15:57:39+00",3.2,4.2,,57.1,-44,118,4,1017.66,57.5,0
"2020-11-27 16:02:39+00",2.4,2.4,,57.1,-96,21,11,1017.52,57.9,0
"2020-11-27 16:07:39+00",2.5,2.5,,56.9,-98,-9,4,1017.45,58.3,0
"2020-11-27 16:12:39+00",2.9,2.9,,56.9,-112,-30,7,1017.39,58.6,0
"2020-11-27 16:17:39+00",3.0,3.0,,57,-123,13,11,1017.35,59.1,0
"2020-11-27 16:22:39+00",4.3,4.3,,56.9,-183,24,2,1017.31,59.3,0
"2020-11-27 16:27:39+00",3.6,4.6,,56.8,-153,31,2,1017.14,59.5,0
"2020-11-27 16:32:39+00",3.4,3.4,,56.8,-142,35,5,1017.02,59.6,0
"2020-11-27 16:37:39+00",3.7,4.7,,56.9,-155,40,8,1017,59.8,0
"2020-11-27 16:42:39+00",5.0,6.0,,56.8,-219,53,11,1017.11,59.9,0
"2020-11-27 16:47:39+00",6.6,6.6,,56.6,-287,64,20,1016.93,60,0
"2020-11-27 16:52:39+00",6.5,7.5,,56.4,-291,47,17,1016.96,60,0
"2020-11-27 16:57:39+00",6.9,7.9,,56.5,-291,66,11,1016.89,59.8,0
"2020-11-27 17:02:39+00",7.1,8.1,,56.6,-324,92,19,1016.88,59.6,0
"2020-11-27 17:07:39+00",7.2,8.2,,56.6,-319,67,20,1016.73,59.5,0
"2020-11-27 17:12:39+00",8.1,9.1,,56.7,-344,96,22,1016.7,59.4,0
"2020-11-27 17:17:39+00",6.4,7.4,,56.8,-280,76,16,1016.58,59.4,0
"2020-11-27 17:22:39+00",6.2,7.2,,57,-271,58,4,1016.51,59.6,0
"2020-11-27 17:27:39+00",6.7,7.7,,57.1,-301,49,22,1016.54,59.8,0
"2020-11-27 17:32:39+00",6.7,7.7,,57.2,-290,78,15,1016.47,59.9,0
"2020-11-27 17:37:39+00",6.0,7.0,,57.3,-256,83,9,1016.31,60,0
"2020-11-27 17:42:39+00",6.2,6.2,,57.3,-272,50,11,1016.24,60,0
"2020-11-27 17:47:39+00",4.2,5.2,,57.4,-180,4,8,1016.24,59.9,0
"2020-11-27 17:52:39+00",5.1,6.1,,57.4,-222,47,10,1016.2,59.9,0
"2020-11-27 17:57:39+00",6.6,6.6,,57.2,-291,72,17,1016.14,59.7,0
"2020-11-27 18:02:39+00",5.7,6.7,,57.1,-239,83,8,1016.17,59.5,0
"2020-11-27 18:07:39+00",6.7,7.7,,57.2,-280,118,3,1016.18,59.3,0
"2020-11-27 18:12:39+00",5.9,7.9,,57.2,-230,110,9,1016.19,59.1,0
"2020-11-27 18:17:39+00",6.2,7.2,,57.4,-246,116,2,1016.13,58.9,0
"2020-11-27 18:22:39+00",5.8,6.8,,57.6,-206,148,0,1016.08,59,0
"2020-11-27 18:27:39+00",6.3,7.3,,57.9,-214,178,20,1015.96,59.1,0
"2020-11-27 18:32:39+00",7.1,8.1,,57.9,-247,171,12,1015.94,59,0
"2020-11-27 18:37:39+00",6.9,8.9,,57.8,-248,192,16,1016,58.9,0
"2020-11-27 18:42:39+00",6.0,7.0,,57.7,-194,177,8,1015.9,58.7,0
"2020-11-27 18:47:39+00",8.2,10.2,,57.8,-270,258,18,1015.98,58.6,0
"2020-11-27 18:52:39+00",8.4,9.4,,58,-288,230,19,1015.91,58.5,0
"2020-11-27 18:57:39+00",7.6,8.6,,57.9,-263,208,20,1015.93,58.4,0
"2020-11-27 19:02:39+00",8.5,9.5,,57.9,-281,254,21,1015.86,58.3,0
"2020-11-27 19:07:39+00",7.7,9.7,,57.8,-265,217,21,1015.82,58.2,0
"2020-11-27 19:12:39+00",8.1,9.1,,57.9,-291,221,15,1015.91,58.2,0
"2020-11-27 19:17:39+00",7.8,8.8,,57.8,-289,218,8,1015.85,58.1,0
"2020-11-27 19:22:39+00",7.5,7.5,,57.6,-258,222,6,1015.87,58,0
"2020-11-27 19:27:39+00",7.1,8.1,,57.4,-238,205,6,1015.89,57.8,0
"2020-11-27 19:32:39+00",7.4,8.4,,57.5,-243,222,15,1015.86,57.6,0
"2020-11-27 19:37:39+00",8.1,9.1,,57.7,-267,236,15,1015.8,57.5,0
"2020-11-27 19:42:39+00",7.6,8.6,,57.8,-239,238,16,1015.82,57.5,0
"2020-11-27 19:47:39+00",6.4,7.4,,57.6,-174,225,14,1015.77,57.4,0
"2020-11-27 19:52:39+00",7.2,8.2,,57.6,-209,244,8,1015.77,57.4,0
"2020-11-27 19:57:39+00",6.9,7.9,,57.6,-164,255,13,1015.75,57.3,0
"2020-11-27 20:02:39+00",6.8,7.8,,57.5,-177,235,9,1015.73,57.2,0
"2020-11-27 20:07:39+00",6.5,7.5,,57.5,-179,223,2,1015.71,57.2,0
"2020-11-27 20:12:39+00",6.5,7.5,,57.5,-147,245,11,1015.66,57.1,0
"2020-11-27 20:17:39+00",6.9,7.9,,57.5,-185,240,10,1015.64,57.1,0
"2020-11-27 20:22:39+00",6.0,7.0,,57.4,-129,229,7,1015.68,57,0
"2020-11-27 20:27:39+00",6.2,7.2,,57.4,-144,229,10,1015.73,56.9,0
"2020-11-27 20:32:39+00",5.5,6.5,,57.3,-144,189,11,1015.77,56.8,0
"2020-11-27 20:37:39+00",5.4,5.4,,57.2,-142,185,9,1015.86,56.7,0
"2020-11-27 20:42:39+00",5.3,6.3,,57.2,-135,189,3,1015.92,56.5,0
"2020-11-27 20:47:39+00",4.4,5.4,,57.2,-76,165,1,1015.82,56.5,0
"2020-11-27 20:52:39+00",5.3,6.3,,57.2,-113,199,2,1015.83,56.4,0
"2020-11-27 20:57:39+00",5.2,6.2,,57.1,-121,181,20,1015.91,56.2,0
"2020-11-27 21:02:39+00",5.1,6.1,,57,-112,184,6,1015.88,56.1,0
"2020-11-27 21:07:39+00",5.5,6.5,,57,-130,199,11,1015.89,56,0
"2020-11-27 21:12:39+00",5.4,6.4,,57,-108,200,10,1015.89,55.9,0
"2020-11-27 21:17:39+00",5.4,5.4,,56.9,-111,205,7,1015.81,55.8,0
"2020-11-27 21:22:39+00",5.6,6.6,,56.8,-140,204,7,1015.81,55.6,0
"2020-11-27 21:27:39+00",5.9,5.9,,56.8,-172,186,9,1015.74,55.4,0
"2020-11-27 21:32:39+00",5.9,6.9,,56.7,-183,183,7,1015.77,55.3,0
"2020-11-27 21:37:39+00",6.6,6.6,,56.7,-230,182,12,1015.79,55.2,0
"2020-11-27 21:42:39+00",6.8,6.8,,56.5,-234,186,10,1015.7,55,0
"2020-11-27 21:47:39+00",5.2,5.2,,56.3,-144,172,9,1015.62,54.9,0
"2020-11-27 21:52:39+00",4.7,4.7,,56.3,-87,178,0,1015.46,54.8,0
"2020-11-27 21:57:39+00",5.4,6.4,,56.1,-109,204,4,1015.36,54.7,0
"2020-11-27 22:02:39+00",5.1,6.1,,56,-121,182,5,1015.39,54.6,0
"2020-11-27 22:07:39+00",4.7,4.7,,55.8,-58,192,-2,1015.19,54.5,0
"2020-11-27 22:12:39+00",4.2,5.2,,55.8,-59,170,0,1015.08,54.4,0
"2020-11-27 22:17:39+00",4.3,4.3,,55.8,-79,161,0,1015.1,54.2,0
"2020-11-27 22:22:39+00",4.2,5.2,,55.7,-87,156,3,1015.01,54.1,0
"2020-11-27 22:27:39+00",4.3,4.3,,55.6,-107,145,5,1015.12,54,0
"2020-11-27 22:32:39+00",3.9,3.9,,55.6,-82,143,4,1015.12,53.8,0
"2020-11-27 22:37:39+00",3.7,3.7,,55.6,-78,126,2,1015.08,53.7,0
"2020-11-27 22:42:39+00",3.9,3.9,,55.5,-92,132,3,1015.23,53.6,0
"2020-11-27 22:47:39+00",4.0,4.0,,55.5,-97,134,5,1015.18,53.4,0
"2020-11-27 22:52:39+00",4.4,4.4,,55.4,-111,144,4,1015.27,53.2,0
"2020-11-27 22:57:39+00",3.8,3.8,,55.4,-84,131,5,1015.04,53,0
"2020-11-27 23:02:39+00",3.5,3.5,,55.3,-86,113,2,1015.04,52.8,0
"2020-11-27 23:07:39+00",3.4,3.4,,55.2,-100,99,2,1015.09,52.7,0
"2020-11-27 23:12:39+00",3.3,4.3,,55.2,-101,97,1,1015.13,52.5,0
"2020-11-27 23:17:39+00",3.6,3.6,,55.2,-126,89,0,1015.26,52.5,0
"2020-11-27 23:22:39+00",3.9,3.9,,55.3,-135,94,4,1015.29,52.4,0
"2020-11-27 23:27:39+00",4.6,4.6,,55.3,-184,87,10,1015.48,52.4,0
"2020-11-27 23:32:39+00",4.7,4.7,,55.2,-206,38,7,1015.7,52.3,0
"2020-11-27 23:37:39+00",5.0,6.0,,55,-196,-66,5,1015.84,52.3,0
"2020-11-27 23:42:39+00",5.6,6.6,,54.6,-233,-64,5,1015.92,52.3,0
"2020-11-27 23:47:39+00",6.3,6.3,,54.2,-266,-55,6,1016.12,52.3,0
"2020-11-27 23:52:39+00",5.6,6.6,,53.7,-247,11,4,1016.14,52.3,0
"2020-11-27 23:57:39+00",5.2,5.2,,53.3,-229,35,4,1015.93,52.2,0
